Meteo pe oră la Dziekcz

Astăzi, 16 Ianuarie, Sâmbătă

Timp Temperatura Precipitaţii Vânt Presiune Umiditate
00:00 -6°C° 0 mm 3 m/s 754 mmHg 92%
01:00 -7°C° 0 mm 3 m/s 754 mmHg 92%
02:00 -7°C° 0 mm 3 m/s 754 mmHg 92%
03:00 -7°C° 0 mm 3 m/s 753 mmHg 91%
04:00 -7°C° 0 mm 3 m/s 753 mmHg 91%
05:00 -7°C° 0 mm 4 m/s 753 mmHg 91%
06:00 -7°C° 0 mm 4 m/s 753 mmHg 90%
07:00 -7°C° 0 mm 4 m/s 753 mmHg 90%
08:00 -7°C° 0 mm 5 m/s 752 mmHg 87%
09:00 -6°C° 0 mm 5 m/s 752 mmHg 84%
10:00 -6°C° 0 mm 5 m/s 751 mmHg 81%
11:00 -6°C° 0 mm 6 m/s 751 mmHg 83%
12:00 -5°C° 0 mm 6 m/s 750 mmHg 84%
13:00 -6°C° 0 mm 7 m/s 750 mmHg 86%
14:00 -5°C° 0.4 mm 6 m/s 749 mmHg 88%
15:00 -5°C° 0.4 mm 6 m/s 749 mmHg 91%
16:00 -5°C° 0.4 mm 5 m/s 749 mmHg 93%
17:00 -6°C° 0.2 mm 5 m/s 749 mmHg 93%
18:00 -7°C° 0.2 mm 4 m/s 749 mmHg 93%
19:00 -8°C° 0.2 mm 3 m/s 750 mmHg 92%
20:00 -9°C° 0 mm 3 m/s 750 mmHg 92%
21:00 -10°C° 0 mm 3 m/s 751 mmHg 92%
22:00 -12°C° 0 mm 3 m/s 751 mmHg 92%
23:00 -13°C° 0 mm 3 m/s 752 mmHg 91%

Mâine, 17 Ianuarie, Duminică

Timp Temperatura Precipitaţii Vânt Presiune Umiditate
00:00 -13°C° 0 mm 2 m/s 752 mmHg 91%
01:00 -14°C° 0 mm 2 m/s 752 mmHg 91%
02:00 -15°C° 0 mm 2 m/s 752 mmHg 90%
03:00 -16°C° 0 mm 2 m/s 752 mmHg 90%
04:00 -16°C° 0 mm 2 m/s 752 mmHg 89%
05:00 -17°C° 0 mm 2 m/s 753 mmHg 89%
06:00 -15°C° 0 mm 1 m/s 753 mmHg 89%
07:00 -15°C° 0 mm 1 m/s 753 mmHg 89%
08:00 -14°C° 0 mm 1 m/s 753 mmHg 85%
09:00 -14°C° 0 mm 1 m/s 754 mmHg 82%
10:00 -13°C° 0 mm 1 m/s 754 mmHg 78%
11:00 -12°C° 0 mm 1 m/s 754 mmHg 75%
12:00 -11°C° 0 mm 1 m/s 755 mmHg 73%
13:00 -11°C° 0 mm 1 m/s 755 mmHg 70%
14:00 -11°C° 0 mm 1 m/s 755 mmHg 74%
15:00 -12°C° 0 mm 1 m/s 754 mmHg 79%
16:00 -12°C° 0 mm 1 m/s 754 mmHg 83%
17:00 -13°C° 0 mm 1 m/s 755 mmHg 84%
18:00 -13°C° 0 mm 1 m/s 755 mmHg 85%
19:00 -13°C° 0 mm 1 m/s 755 mmHg 85%
20:00 -13°C° 0 mm 1 m/s 755 mmHg 86%
21:00 -14°C° 0 mm 1 m/s 755 mmHg 86%
22:00 -14°C° 0 mm 1 m/s 755 mmHg 87%
23:00 -14°C° 0 mm 1 m/s 755 mmHg 87%

Poimâine, 18 Ianuarie, Luni

Timp Temperatura Precipitaţii Vânt Presiune Umiditate
00:00 -14°C° 0 mm 1 m/s 755 mmHg 87%
01:00 -14°C° 0 mm 1 m/s 755 mmHg 88%
02:00 -14°C° 0 mm 1 m/s 755 mmHg 88%
03:00 -14°C° 0 mm 1 m/s 755 mmHg 88%
04:00 -14°C° 0 mm 1 m/s 754 mmHg 88%
05:00 -14°C° 0 mm 1 m/s 754 mmHg 88%
06:00 -16°C° 0 mm 2 m/s 754 mmHg 88%
07:00 -16°C° 0 mm 2 m/s 755 mmHg 88%
08:00 -15°C° 0 mm 2 m/s 754 mmHg 87%
09:00 -15°C° 0 mm 2 m/s 754 mmHg 86%
10:00 -15°C° 0 mm 3 m/s 754 mmHg 85%
11:00 -14°C° 0 mm 3 m/s 754 mmHg 84%
12:00 -13°C° 0 mm 3 m/s 754 mmHg 84%
13:00 -12°C° 0 mm 3 m/s 754 mmHg 83%
14:00 -12°C° 0 mm 3 m/s 753 mmHg 85%
15:00 -13°C° 0 mm 3 m/s 753 mmHg 86%
16:00 -13°C° 0 mm 3 m/s 752 mmHg 88%
17:00 -13°C° 0 mm 3 m/s 752 mmHg 90%
18:00 -12°C° 0 mm 3 m/s 752 mmHg 91%
19:00 -12°C° 0 mm 3 m/s 751 mmHg 93%
20:00 -10°C° 0.1 mm 3 m/s 751 mmHg 93%
21:00 -10°C° 0.1 mm 3 m/s 751 mmHg 94%
22:00 -9°C° 0.1 mm 3 m/s 750 mmHg 94%
23:00 -8°C° 0.3 mm 3 m/s 750 mmHg 95%

19 Ianuarie, Marţi

Timp Temperatura Precipitaţii Vânt Presiune Umiditate
00:00 -7°C° 0.3 mm 3 m/s 750 mmHg 95%
01:00 -6°C° 0.3 mm 3 m/s 749 mmHg 96%
02:00 -5°C° 0.1 mm 3 m/s 749 mmHg 96%
03:00 -2°C° 0.1 mm 3 m/s 749 mmHg 97%
04:00 -1°C° 0.1 mm 3 m/s 748 mmHg 97%
05:00 -1°C° 0 mm 3 m/s 748 mmHg 97%
06:00 0°C° 0 mm 3 m/s 748 mmHg 97%
07:00 0°C° 0 mm 3 m/s 748 mmHg 97%
08:00 0°C° 0 mm 3 m/s 748 mmHg 98%
09:00 -1°C° 0 mm 4 m/s 748 mmHg 98%
10:00 -1°C° 0 mm 4 m/s 748 mmHg 98%
11:00 -1°C° 0 mm 4 m/s 748 mmHg 98%
12:00 -1°C° 0 mm 4 m/s 747 mmHg 98%
13:00 -1°C° 0 mm 4 m/s 747 mmHg 98%
14:00 -1°C° 0 mm 4 m/s 747 mmHg 97%
15:00 -1°C° 0 mm 4 m/s 746 mmHg 96%
16:00 -2°C° 0 mm 4 m/s 746 mmHg 95%
17:00 -2°C° 0.2 mm 5 m/s 745 mmHg 96%
18:00 -2°C° 0.2 mm 5 m/s 745 mmHg 96%
19:00 -2°C° 0.2 mm 5 m/s 744 mmHg 96%
20:00 -2°C° 0.7 mm 5 m/s 743 mmHg 97%
21:00 -2°C° 0.7 mm 5 m/s 743 mmHg 97%
22:00 -2°C° 0.7 mm 5 m/s 742 mmHg 97%
23:00 -1°C° 0.9 mm 5 m/s 742 mmHg 98%

20 Ianuarie, Miercuri

Timp Temperatura Precipitaţii Vânt Presiune Umiditate
00:00 0°C° 0.9 mm 5 m/s 741 mmHg 98%
01:00 0°C° 0.9 mm 5 m/s 741 mmHg 98%
02:00 0°C° 0.4 mm 5 m/s 741 mmHg 98%
03:00 0°C° 0.4 mm 5 m/s 741 mmHg 98%
04:00 0°C° 0.4 mm 5 m/s 741 mmHg 98%
05:00 0°C° 0.2 mm 5 m/s 741 mmHg 97%
06:00 0°C° 0.2 mm 5 m/s 741 mmHg 97%
07:00 0°C° 0.2 mm 5 m/s 741 mmHg 97%
08:00 0°C° 0 mm 5 m/s 741 mmHg 96%
09:00 -1°C° 0 mm 6 m/s 741 mmHg 95%
10:00 -1°C° 0 mm 6 m/s 741 mmHg 94%
11:00 -1°C° 0.1 mm 6 m/s 741 mmHg 93%
12:00 -1°C° 0.1 mm 6 m/s 740 mmHg 92%
13:00 -1°C° 0.1 mm 6 m/s 740 mmHg 92%
14:00 -1°C° 0 mm 6 m/s 740 mmHg 90%
15:00 0°C° 0 mm 5 m/s 740 mmHg 89%
16:00 0°C° 0 mm 5 m/s 740 mmHg 88%
17:00 0°C° 0.1 mm 5 m/s 739 mmHg 89%
18:00 0°C° 0.1 mm 5 m/s 739 mmHg 90%
19:00 0°C° 0.1 mm 5 m/s 739 mmHg 92%
20:00 0°C° 0 mm 5 m/s 739 mmHg 91%
21:00 0°C° 0 mm 5 m/s 739 mmHg 91%
22:00 0°C° 0 mm 5 m/s 739 mmHg 90%
23:00 0°C° 0 mm 5 m/s 739 mmHg 88%

21 Ianuarie, Joi

Timp Temperatura Precipitaţii Vânt Presiune Umiditate
00:00 0°C° 0 mm 5 m/s 739 mmHg 86%
01:00 0°C° 0 mm 5 m/s 739 mmHg 83%
02:00 0°C° 0 mm 5 m/s 739 mmHg 82%
03:00 0°C° 0 mm 5 m/s 739 mmHg 81%
04:00 0°C° 0 mm 5 m/s 738 mmHg 79%
05:00 0°C° 0 mm 5 m/s 738 mmHg 79%
06:00 -1°C° 0 mm 6 m/s 738 mmHg 79%
07:00 -1°C° 0 mm 6 m/s 738 mmHg 78%
08:00 0°C° 0 mm 5 m/s 738 mmHg 80%
09:00 0°C° 0 mm 5 m/s 738 mmHg 81%
10:00 0°C° 0 mm 5 m/s 738 mmHg 83%
11:00 +1°C° 0 mm 5 m/s 737 mmHg 84%
12:00 +1°C° 0 mm 5 m/s 737 mmHg 85%
13:00 +1°C° 0 mm 5 m/s 737 mmHg 86%
14:00 +1°C° 0 mm 5 m/s 737 mmHg 87%
15:00 +1°C° 0 mm 5 m/s 737 mmHg 87%
16:00 +1°C° 0 mm 5 m/s 738 mmHg 87%
17:00 0°C° 0 mm 5 m/s 738 mmHg 89%
18:00 0°C° 0 mm 4 m/s 739 mmHg 91%
19:00 0°C° 0 mm 3 m/s 739 mmHg 92%
20:00 -1°C° 0 mm 4 m/s 739 mmHg 92%
21:00 -1°C° 0 mm 4 m/s 740 mmHg 91%
22:00 -1°C° 0 mm 5 m/s 740 mmHg 91%
23:00 -1°C° 0 mm 5 m/s 741 mmHg 90%
Arată mai mult

Formular de consimțământ

Meteoprog și furnizorii noștri de servicii pot stoca și accesa date personale, precum cookies, identificatori de dispozitiv sau alte tehnologii similare pe dispozitivul dumneavoastră și procesa astfel de date pentru a personaliza conținutul și reclamele, dar și pentru a oferi caracteristici de social media și pentru a analiza traficul.

  • Stocarea și/sau accesarea informațiilor pe dispozitivul dumneavoastră

    Cookies, identificatori de dispozitiv sau alte informații pot fi stocate sau accesate pe dispozitiv în scopurile indicate mai sus.

  • Reclame și conținut personalizat, evaluarea reclamelor și a conținutului, informații despre audiențe și dezvoltarea produselor

    Reclamele și conținutul pot fi personalizate pe baza unui profil. Pot fi adăugate date suplimentare pentru a personaliza mai bine reclamele și conținutul. Performanța reclamelor și conținutului poate fi măsurată. Pot fi obținute informații despre utilizatorii care au văzut reclamele și conținutul. Aceste date pot fi utilizate pentru a dezvolta sau îmbunătăți experiența utilizatorilor, sistemele și software-ul.

Dând clic pe ‘Sunt de acord’, permiteți utilizarea cookie-urilor menționate, a identificatorilor de dispozitiv, balizelor web sau altor tehnologii similare. Setările pot fi modificate din browser-ul dispozitivului dumneavoastră.

În anumite scopuri, interesele legitime pot prima asupra consimțământului. Puteți citi mai multe informații în acest sens în Politica privind Confidențialitatea Datelor și Cookie.